This demonstration page uses our WeatherBlox Daily Observations layout. Learn more.

Left ArrowRight Arrow

39.92423, -83.80882

Hourly Observations for November 12, 2015

Temp ( °F °C ) Dew Point ( °F °C ) Humidity (%) Winds ( mph kmh ) Pressure ( in mb ) Visibility ( mi km ) Precip ( " mm )
12:44 am 00:44 Cloudy with Rain 46 8 45 7 93 93 SE 12 19 29.71 1006 2 3.21868 0.08 2.032
12:56 am 00:56 Cloudy with Light Rain 47 8.3 45 7.2 93 93 SSE 13 20 29.7 1006 3 4.82802 0.11 2.794
1:27 am 01:27 Mostly Cloudy with Light Rain 46 8 45 7 93 93 SSE 8 13 29.71 1006 2.5 4.02335 0.07 1.778
1:56 am 01:56 Cloudy with Rain 47 8.3 46 7.7 96 96 SE 18 30 29.66 1005 1.75 2.816345 0.21 5.334
2:05 am 02:05 Cloudy with Light Rain 46 8 46 8 100 100 SE 15 24 29.65 1004 3 4.82802 0.02 0.508
2:56 am 02:56 Cloudy with Light Rain 47 8.3 47 8.3 100 100 SE 18 30 29.61 1003 3 4.82802 0.09 2.286
3:17 am 03:17 Cloudy 48 9 46 8 94 94 SE 17 28 29.59 1002 10 16.0934 0.01 0.254
3:49 am 03:49 Cloudy 48 9 48 9 100 100 SSE 12 19 29.59 1002 10 16.0934 0.01 0.254
3:56 am 03:56 Cloudy 50 10 49 9.4 96 96 S 13 20 29.58 1002 10 16.0934 0.01 0.254
4:56 am 04:56 Cloudy 54 12.2 52 11.1 93 93 S 15 24 29.56 1001 10 16.0934 0 0
5:56 am 05:56 Cloudy 56 13.3 54 12.2 93 93 S 18 30 29.53 1000 10 16.0934 0 0
6:56 am 06:56 Mostly Cloudy 56 13.3 55 12.7 96 96 S 18 30 29.53 1000 10 16.0934 0 0
7:19 am 07:19 Mostly Cloudy 57 14 55 13 94 94 S 20 31 29.53 1000 10 16.0934 0 0
7:45 am 07:45 Mostly Cloudy 57 14 50 10 77 77 WSW 25 41 29.53 1000 10 16.0934 0 0
7:56 am 07:56 Mostly Cloudy 56 13.3 46 7.7 69 69 WSW 23 37 29.57 1001 10 16.0934 0 0
8:56 am 08:56 Partly Cloudy 52 11.1 42 5.5 69 69 WSW 24 39 29.63 1004 10 16.0934 0 0
9:56 am 09:56 Mostly Cloudy 52 11.1 43 6.1 72 72 SW 18 30 29.65 1004 10 16.0934 0 0
10:56 am 10:56 Cloudy 50 10 41 5 71 71 SW 29 46 29.67 1005 10 16.0934 0 0
11:27 am 11:27 Cloudy 50 10 41 5 71 71 SSW 29 46 29.68 1005 10 16.0934 0 0
11:56 am 11:56 Cloudy 49 9.4 41 5 74 74 SW 28 44 29.7 1006 10 16.0934 0 0
12:56 pm 12:56 Cloudy 49 9.4 41 5 74 74 SW 18 30 29.7 1006 10 16.0934 0 0
1:56 pm 13:56 Cloudy 49 9.4 41 5 74 74 SW 26 43 29.71 1006 10 16.0934 0 0
2:56 pm 14:56 Cloudy 50 10 41 5 71 71 SW 24 39 29.74 1007 10 16.0934 0 0
3:56 pm 15:56 Cloudy 50 10 41 5 71 71 SW 26 43 29.77 1008 10 16.0934 0 0
4:56 pm 16:56 Cloudy 50 10 41 5 71 71 WSW 28 44 29.79 1009 10 16.0934 0 0
5:56 pm 17:56 Cloudy 50 10 41 5 71 71 WSW 29 46 29.82 1010 10 16.0934 0 0
6:56 pm 18:56 Cloudy 50 10 41 5 71 71 SW 23 37 29.85 1011 10 16.0934 0 0
7:56 pm 19:56 Cloudy 50 10 41 5 71 71 SW 18 30 29.86 1011 10 16.0934 0 0
8:56 pm 20:56 Cloudy 50 10 40 4.4 68 68 WSW 24 39 29.87 1012 10 16.0934 0 0
9:56 pm 21:56 Mostly Clear 47 8.3 39 3.8 74 74 SW 20 31 29.89 1012 10 16.0934 0 0
10:56 pm 22:56 Clear 46 7.7 37 2.7 71 71 WSW 20 31 29.9 1013 10 16.0934 0 0
11:56 pm 23:56 Clear 46 7.7 34 1.1 63 63 WSW 23 37 29.91 1013 10 16.0934 0 0

Powered by AerisWeather